Preview of NWS' New Version of Forecast
This preview is not operational and should not be used for support decisions.

Regional Weather Roundup (RWR)

Issued by National Weather Service (NWS)

                            
000
ASUS43 KBIS 211210
RWRND 

NORTH DAKOTA REGIONAL WEATHER ROUNDUP
NATIONAL WEATHER SERVICE BISMARCK ND
700 AM CDT SUN APR 21 2019

NOTE: "FAIR" INDICATES FEW OR NO CLOUDS BELOW 12,000 FEET WITH NO
SIGNIFICANT WEATHER AND/OR OBSTRUCTIONS TO VISIBILITY.


NDZ001>003-009>011-017-211300-
NORTHWEST NORTH DAKOTA
  
CITY           SKY/WX    TMP DP  RH WIND       PRES   REMARKS
WILLISTON      LGT RAIN  48  42  80 N6        29.97R                  
6HR MIN TEMP:  46; 6HR MAX TEMP:  50; 6HR PCP:  0.06;                

MINOT          CLOUDY    44  42  93 NW6       29.94R                  
MINOT AFB      CLOUDY    44  43  99 CALM      29.94R                  
$$
 
NDZ018>021-031>035-040>046-211300-
SOUTHWEST NORTH DAKOTA
  
CITY           SKY/WX    TMP DP  RH WIND       PRES   REMARKS
BISMARCK       CLOUDY    45  41  86 NE14      29.88R                  
6HR MIN TEMP:  45; 6HR MAX TEMP:  49;                                

DICKINSON      LGT RAIN  46  45  96 NW6       29.92R                  
GARRISON         N/A     42  41  96 N8        29.91R                  
6HR MIN TEMP:  38; 6HR MAX TEMP:  48;                                

HETTINGER ARPT RAIN      43  41  93 N13       29.92R FOG              
$$
 
NDZ004>008-012>016-024-026-027-054-211300-
NORTHEAST NORTH DAKOTA
  
CITY           SKY/WX    TMP DP  RH WIND       PRES   REMARKS
GRAND FORKS    MOCLDY    43  39  86 N5        29.90R                  
GRND FRKS AFB  MOCLDY    42  42  99 NE6       29.91R                  
DEVILS LAKE    PTCLDY    41  37  86 NE8       29.93R                  
$$
 
NDZ022-023-025-028>030-036>039-047>053-211300-
SOUTHEAST NORTH DAKOTA
  
CITY           SKY/WX    TMP DP  RH WIND       PRES   REMARKS
FARGO          CLOUDY    47  42  83 NE16      29.82R                  
6HR MIN TEMP:  47; 6HR MAX TEMP:  53; 6HR PCP:  0.04;                

JAMESTOWN      CLOUDY    43  41  93 N8        29.87R                  
$$